[[{"header":{"parameterUnit":"m.s-1","parameterCategory":1,"la1":30.2991,"la2":30.254,"lo1":-89.0895,"lo2":-89.0444,"dy":0.0017,"dx":0.0017,"nx":28,"ny":28,"refTime":"2024-10-03T21:00:00:Z","depth":0,"parameterNumber":2,"parameterNumberName":"U-component_of_WINDS"},"data":[0,0,0,0,0,0,0,0,0,0,0,0,0,0,0,0,0,0,0,0,0,0,0,0,0,0,0,0,0,0,0,0,0,0,0,0,0,0,0,0,0,0,0,0,0,0,0,0,0,0,0,0,0,0,0,0,0,0,-4.3312,-4.3313,0,-4.3384,-4.3385,-4.3386,-4.3297,-4.3294,-4.3291,-4.3287,-4.3359,-4.3364,-4.3368,0,0,0,0,0,0,0,0,0,0,0,0,0,-4.3097,-4.3101,-4.3312,-4.3313,-4.3314,-4.3384,-4.3385,-4.3386,-4.3298,-4.3294,-4.329,-4.3286,-4.3357,-4.3363,-4.3369,0,0,0,0,0,0,0,0,0,0,0,0,0,-4.3181,-4.3102,-4.3312,-4.3279,-4.3276,-4.3384,-4.3385,-4.3386,-4.3298,-4.3294,-4.3289,-4.3284,-4.3355,-4.3362,-4.337,-4.3513,0,0,-4.3392,-4.3395,0,0,0,0,0,0,0,0,-4.3177,-4.3189,-4.3283,-4.3281,-4.3279,-4.3327,-4.3335,-4.3429,-4.33,-4.329,-4.3287,-4.3282,-4.3352,-4.3359,-4.3383,-4.3516,-4.3519,-4.3393,-4.3397,-4.3401,-4.3403,0,0,0,0,0,0,0,-4.3171,-4.3186,-4.3341,-4.3284,-4.3282,-4.3259,-4.3266,-4.3352,-4.3347,-4.329,-4.3284,-4.3294,-4.335,-4.3376,-4.3384,-4.352,-4.3393,-4.3399,-4.3404,-4.3407,-4.3774,-4.3779,0,0,0,0,0,0,-4.3169,-4.3182,-4.3338,-4.3343,-4.3215,-4.3267,-4.3274,-4.3316,-4.3346,-4.3346,-4.3298,-4.329,-4.3366,-4.3376,-4.3386,-4.3556,-4.34,-4.3407,-4.3412,-4.3769,-4.3775,-4.3781,0,0,0,0,0,0,-4.3165,-4.3184,-4.3335,-4.3261,-4.3278,-4.3276,-4.3323,-4.332,-4.3347,-4.3352,-4.335,-4.3326,-4.3363,-4.3376,-4.3482,-4.3558,-4.3411,-4.3417,-4.3763,-4.3771,-4.3778,-4.3898,0,0,0,0,0,0,-4.3159,-4.3183,-4.3238,-4.3262,-4.3282,-4.3431,-4.3328,-4.3325,-4.336,-4.3349,-4.3378,-4.3378,-4.336,-4.3472,-4.349,-4.3565,-4.3423,-4.3756,-4.3766,-4.3776,-4.3887,-4.3909,-4.3927,0,0,0,0,0,-4.3152,-4.3268,-4.3242,-4.3261,-4.3351,-4.3436,-4.3447,-4.3424,-4.3366,-4.3421,-4.3425,-4.3377,-4.3546,-4.3483,-4.3503,-4.3582,-4.3751,-4.3763,-4.3775,-4.3878,-4.3904,-4.3927,0,0,0,0,0,0,-4.3252,-4.3271,-4.3241,-4.3369,-4.3402,-4.3421,-4.3489,-4.3453,-4.3502,-4.349,-4.3459,-4.3466,-4.358,-4.3591,-4.352,-4.3722,-4.3639,-4.3656,-4.3711,-4.3736,-4.3756,-4.3751,-4.3429,0,0,0,0,0,-4.3289,-4.3357,-4.3369,-4.3481,-4.3499,-4.3492,-4.3527,-4.3507,-4.3539,-4.3552,-4.3563,-4.3596,-4.3656,-4.3696,-4.3752,-4.3888,-4.3893,-4.3952,-4.3972,-4.3988,-4.4003,-4.4076,-4.4102,-4.3821,-4.382,-4.382,0,0,-4.3366,-4.3385,-4.343,-4.3502,-4.3524,-4.3595,-4.3504,-4.3582,-4.3633,-4.3564,-4.3665,-4.3675,-4.3708,-4.383,-4.3884,-4.3843,-4.4082,-4.4004,-4.4017,-4.4023,-4.4091,-4.4118,-4.4141,-4.3829,-4.3827,-4.3826,0,0,-4.3543,-4.3564,-4.366,-4.3685,-4.372,-4.3715,-4.3738,-4.3763,-4.3766,-4.3868,-4.3817,-4.3877,-4.3982,-4.4008,-4.4036,-4.4223,-4.4181,-4.4241,-4.4347,-4.4419,-4.4441,-4.446,-4.4528,-4.4552,-4.4256,-4.4256,-4.4256,0,-4.3634,-4.3739,-4.3713,-4.3796,-4.3829,-4.3769,-4.3866,-4.3891,-4.3943,-4.3967,-4.392,-4.405,-4.4069,-4.4196,-4.4242,-4.4265,-4.4291,-4.4238,-4.444,-4.4459,-4.4477,-4.4541,-4.4566,-4.4263,-4.4263,-4.4262,-4.4261,0,-4.385,-4.3923,-4.3996,-4.4049,-4.409,-4.4179,-4.4166,-4.421,-4.4187,-4.4186,-4.429,-4.431,-4.4369,-4.4397,-4.4374,-4.4522,-4.4495,-4.4445,-4.4361,-4.4512,-4.4571,-4.4595,-4.4274,-4.4271,-4.4269,-4.4267,0,0,-4.4092,-4.413,-4.4157,-4.4181,-4.4216,-4.4272,-4.4357,-4.4416,-4.4455,-4.4493,-4.4564,-4.4654,-4.4608,-4.4638,-4.4618,-4.4681,-4.4828,-4.4622,-4.4622,-4.466,-4.4992,-4.503,-4.5059,-4.48,-4.4805,-4.4808,-4.4989,0,-4.427,-4.442,-4.4399,-4.4543,-4.461,-4.4555,-4.4629,-4.4659,-4.466,-4.4717,-4.4718,-4.4783,-4.4716,-4.4735,-4.4794,-4.4798,-4.4894,-4.4784,-4.4866,-4.4869,-4.486,-4.509,-4.5131,-4.53,-4.5012,-4.5016,-4.5019,0,-4.4497,-4.4545,-4.4696,-4.4721,-4.4748,-4.4816,-4.4868,-4.4923,-4.4955,-4.4951,-4.4986,-4.4955,-4.504,-4.4954,-4.5071,-4.4997,-4.5029,-4.5036,-4.5042,-4.5049,-4.4954,-4.5104,-4.5354,-4.538,-4.5055,-4.5052,-4.505,0,-4.466,-4.4761,-4.4864,-4.4886,-4.4918,-4.4967,-4.4982,-4.5009,-4.5046,-4.5091,-4.5114,-4.5168,-4.5198,-4.5241,-4.5224,-4.5163,-4.5345,-4.5258,-4.5344,-4.5345,-4.5385,-4.5383,-4.5645,-4.5405,-4.5405,-4.5405,-4.5404,0,-4.4861,-4.4956,-4.4938,-4.5002,-4.5106,-4.5081,-4.5184,-4.5192,-4.5217,-4.5281,-4.5236,-4.5297,-4.5271,-4.533,-4.5317,-4.5416,-4.543,-4.5429,-4.5425,-4.5434,-4.5434,-4.5455,-4.5443,-4.5411,-4.541,-4.5408,-4.5407,0,-4.506,-4.5052,-4.5162,-4.5183,-4.519,-4.5267,-4.5284,-4.5344,-4.5341,-4.5423,-4.544,-4.5437,-4.5504,-4.5492,-4.5565,-4.5557,-4.5681,-4.5662,-4.5671,-4.5667,-4.5754,-4.5746,-4.6038,-4.6076,-4.5812,-4.5814,-4.5817,0,-4.519,-4.5261,-4.5291,-4.5331,-4.535,-4.5415,-4.5452,-4.5429,-4.547,-4.5512,-4.5567,-4.563,-4.5679,-4.5789,-4.5792,-4.5848,-4.583,-4.5929,-4.5839,-4.5845,-4.5833,-4.5829,-4.5836,-4.5947,-4.595,-4.5953,-4.5955,0,-4.542,-4.5412,-4.5469,-4.5524,-4.557,-4.5612,-4.565,-4.5685,-4.5665,-4.5713,-4.5782,-4.582,-4.5896,-4.5959,-4.6011,-4.6026,-4.5988,-4.5983,-4.6006,-4.6016,-4.6019,-4.6019,-4.572,-4.5977,-4.5974,-4.5973,-4.5972,-4.5971,-4.5588,-4.565,-4.568,-4.5744,-4.577,-4.5807,-4.5864,-4.5869,-4.5926,-4.5986,-4.5969,-4.6047,-4.6077,-4.6143,-4.6164,-4.6224,-4.6187,-4.6221,-4.6229,-4.6238,-4.6249,-4.6009,-4.6233,-4.6233,-4.6232,-4.6232,-4.6231,0,-4.5817,-4.5834,-4.5893,-4.5948,-4.5998,-4.5958,-4.5997,-4.6042,-4.6111,-4.6142,-4.6192,-4.6271,-4.6332,-4.6341,-4.6399,-4.6445,-4.6429,-4.6461,-4.6458,-4.6462,-4.6278,-4.6253,-4.6473,-4.6473,-4.6473,-4.6473,-4.6473,-4.6473,-4.5942,-4.6044,-4.604,-4.6154,-4.6169,-4.6246,-4.6272,-4.6305,-4.633,-4.6421,-4.6472,-4.6477,-4.6499,-4.6558,-4.6612,-4.6613,-4.6637,-4.6676,-4.667,-4.6499,-4.6475,-4.6452,-4.6428,-4.6681,-4.6681,-4.6849,-4.685,-4.6851]},{"header":{"parameterUnit":"m.s-1","parameterCategory":1,"la1":30.2991,"la2":30.254,"lo1":-89.0895,"lo2":-89.0444,"dy":0.0017,"dx":0.0017,"nx":28,"ny":28,"refTime":"2024-10-03T21:00:00:Z","depth":0,"parameterNumber":3,"parameterNumberName":"V-component_of_WINDS"},"data":[0,0,0,0,0,0,0,0,0,0,0,0,0,0,0,0,0,0,0,0,0,0,0,0,0,0,0,0,0,0,0,0,0,0,0,0,0,0,0,0,0,0,0,0,0,0,0,0,0,0,0,0,0,0,0,0,0,0,-3.5243,-3.5244,0,-3.5268,-3.5269,-3.5269,-3.5221,-3.522,-3.5218,-3.5217,-3.524,-3.5242,-3.5244,0,0,0,0,0,0,0,0,0,0,0,0,0,-3.5151,-3.5153,-3.5243,-3.5244,-3.5244,-3.5268,-3.5269,-3.5269,-3.5221,-3.522,-3.5218,-3.5216,-3.5239,-3.5242,-3.5244,0,0,0,0,0,0,0,0,0,0,0,0,0,-3.5185,-3.5154,-3.5243,-3.5223,-3.5222,-3.5268,-3.5269,-3.5269,-3.5222,-3.5219,-3.5217,-3.5215,-3.5239,-3.5242,-3.5245,-3.5312,0,0,-3.5254,-3.5256,0,0,0,0,0,0,0,0,-3.5184,-3.5189,-3.5226,-3.5225,-3.5223,-3.5239,-3.5245,-3.5283,-3.5222,-3.5222,-3.5216,-3.5214,-3.5242,-3.5244,-3.5254,-3.5313,-3.5314,-3.5255,-3.5257,-3.5258,-3.5259,0,0,0,0,0,0,0,-3.5181,-3.5187,-3.5253,-3.5227,-3.5225,-3.5212,-3.5214,-3.5252,-3.5245,-3.5222,-3.5218,-3.5222,-3.524,-3.5251,-3.5254,-3.5314,-3.5255,-3.5257,-3.5259,-3.5261,-3.5427,-3.5429,0,0,0,0,0,0,-3.5182,-3.5186,-3.5252,-3.5254,-3.5197,-3.5216,-3.5218,-3.5236,-3.5244,-3.5243,-3.5224,-3.522,-3.5247,-3.5251,-3.5255,-3.5333,-3.5258,-3.5261,-3.5263,-3.5424,-3.5427,-3.543,0,0,0,0,0,0,-3.518,-3.5188,-3.5251,-3.5219,-3.5226,-3.522,-3.5241,-3.5238,-3.5249,-3.5246,-3.5244,-3.5237,-3.5245,-3.5251,-3.5298,-3.5333,-3.5262,-3.5265,-3.5421,-3.5425,-3.5429,-3.549,0,0,0,0,0,0,-3.5178,-3.5188,-3.5214,-3.522,-3.5228,-3.5295,-3.5243,-3.524,-3.5255,-3.5249,-3.5257,-3.5256,-3.5244,-3.5293,-3.5301,-3.5336,-3.5268,-3.5418,-3.5423,-3.5428,-3.5484,-3.5495,-3.5504,0,0,0,0,0,-3.5174,-3.523,-3.5216,-3.5224,-3.5261,-3.5297,-3.5301,-3.5287,-3.5258,-3.5284,-3.5281,-3.5256,-3.5328,-3.5298,-3.5307,-3.5343,-3.5416,-3.5422,-3.5427,-3.548,-3.5493,-3.5504,0,0,0,0,0,0,-3.5228,-3.523,-3.5214,-3.5274,-3.5286,-3.5289,-3.5321,-3.5301,-3.5321,-3.5315,-3.5295,-3.5297,-3.5348,-3.535,-3.5317,-3.5408,-3.5367,-3.5375,-3.5404,-3.5417,-3.5426,-3.5424,-3.527,0,0,0,0,0,-3.5246,-3.5276,-3.5277,-3.5329,-3.5336,-3.5327,-3.5343,-3.533,-3.5341,-3.5346,-3.5347,-3.5358,-3.5383,-3.54,-3.5423,-3.5485,-3.5485,-3.5514,-3.5524,-3.5532,-3.5538,-3.557,-3.5583,-3.5449,-3.5449,-3.5449,0,0,-3.5285,-3.529,-3.531,-3.534,-3.5347,-3.5378,-3.5332,-3.5366,-3.5388,-3.5351,-3.5395,-3.5397,-3.5407,-3.5462,-3.5486,-3.5466,-3.5575,-3.5539,-3.5545,-3.5548,-3.5577,-3.559,-3.5601,-3.5453,-3.5452,-3.5451,0,0,-3.5371,-3.5379,-3.5423,-3.5431,-3.5444,-3.5437,-3.5448,-3.5454,-3.5454,-3.5498,-3.547,-3.5496,-3.5539,-3.5548,-3.5558,-3.5647,-3.5624,-3.5655,-3.5706,-3.5737,-3.5748,-3.5757,-3.5788,-3.5799,-3.5662,-3.5662,-3.5662,0,-3.5418,-3.5464,-3.5447,-3.5484,-3.5497,-3.5465,-3.5508,-3.5517,-3.5536,-3.5545,-3.5522,-3.5576,-3.5581,-3.5637,-3.5658,-3.5668,-3.5678,-3.5654,-3.5748,-3.5757,-3.5765,-3.5794,-3.5806,-3.5665,-3.5665,-3.5664,-3.5664,0,-3.552,-3.5552,-3.5585,-3.5605,-3.5622,-3.5662,-3.5651,-3.5669,-3.5655,-3.5651,-3.5696,-3.5701,-3.5724,-3.5736,-3.5723,-3.579,-3.5777,-3.5751,-3.571,-3.5782,-3.5809,-3.582,-3.567,-3.5669,-3.5668,-3.5667,0,0,-3.5641,-3.565,-3.5663,-3.5671,-3.5682,-3.5706,-3.5743,-3.5766,-3.5782,-3.5796,-3.5827,-3.5864,-3.584,-3.5852,-3.5839,-3.5866,-3.5935,-3.5837,-3.5837,-3.5854,-3.6008,-3.6027,-3.604,-3.592,-3.5922,-3.5924,-3.6007,0,-3.5725,-3.5791,-3.5777,-3.5841,-3.587,-3.5839,-3.5872,-3.5882,-3.5879,-3.5902,-3.5898,-3.5925,-3.5892,-3.5898,-3.5924,-3.5921,-3.5965,-3.5915,-3.5947,-3.5949,-3.5945,-3.6054,-3.6075,-3.6153,-3.6017,-3.6019,-3.602,0,-3.5834,-3.5852,-3.5919,-3.5924,-3.5936,-3.5966,-3.5985,-3.6008,-3.6018,-3.6013,-3.6026,-3.6008,-3.6044,-3.6002,-3.6051,-3.6017,-3.603,-3.603,-3.6033,-3.6035,-3.5989,-3.6059,-3.6178,-3.6189,-3.6037,-3.6036,-3.6035,0,-3.5914,-3.5955,-3.6001,-3.6009,-3.6016,-3.6038,-3.6042,-3.6049,-3.6063,-3.608,-3.6089,-3.6109,-3.612,-3.6136,-3.6123,-3.6094,-3.6174,-3.6132,-3.6171,-3.6171,-3.6189,-3.6188,-3.6311,-3.6198,-3.6197,-3.6197,-3.6197,0,-3.601,-3.6052,-3.6037,-3.6065,-3.6111,-3.6094,-3.6139,-3.6139,-3.6146,-3.6173,-3.6147,-3.6172,-3.6154,-3.6177,-3.6167,-3.6209,-3.6214,-3.6211,-3.6208,-3.6214,-3.6214,-3.6221,-3.6215,-3.62,-3.62,-3.6199,-3.6199,0,-3.6108,-3.6099,-3.6147,-3.615,-3.6151,-3.6185,-3.6187,-3.6212,-3.6207,-3.6241,-3.6248,-3.624,-3.6266,-3.6255,-3.6283,-3.6276,-3.6329,-3.6319,-3.6326,-3.6323,-3.6363,-3.6359,-3.6494,-3.6511,-3.6388,-3.6389,-3.639,0,-3.617,-3.6201,-3.6208,-3.6224,-3.623,-3.6256,-3.6271,-3.6255,-3.6271,-3.6284,-3.6307,-3.6331,-3.635,-3.6393,-3.6389,-3.641,-3.6399,-3.6445,-3.6402,-3.6406,-3.6399,-3.6397,-3.64,-3.6454,-3.6455,-3.6456,-3.6457,0,-3.628,-3.6274,-3.6296,-3.6317,-3.6335,-3.635,-3.6363,-3.6378,-3.6362,-3.6381,-3.6408,-3.6422,-3.645,-3.6474,-3.6492,-3.6495,-3.6474,-3.6471,-3.6481,-3.6487,-3.6489,-3.6488,-3.6349,-3.6468,-3.6467,-3.6466,-3.6465,-3.6465,-3.6361,-3.6387,-3.6396,-3.6421,-3.6429,-3.6442,-3.6465,-3.6463,-3.6486,-3.6507,-3.6496,-3.6527,-3.6535,-3.6557,-3.6563,-3.6586,-3.6568,-3.6583,-3.6586,-3.659,-3.6595,-3.6486,-3.6589,-3.6589,-3.6589,-3.6589,-3.6588,0,-3.6469,-3.6473,-3.6496,-3.6515,-3.6535,-3.6514,-3.6527,-3.6544,-3.6572,-3.6581,-3.66,-3.663,-3.6653,-3.6651,-3.6671,-3.669,-3.6681,-3.6696,-3.6694,-3.6695,-3.6611,-3.66,-3.6704,-3.6703,-3.6703,-3.6703,-3.6703,-3.6703,-3.6528,-3.6571,-3.6566,-3.6612,-3.6616,-3.6646,-3.6655,-3.6666,-3.6674,-3.6709,-3.6728,-3.6726,-3.6731,-3.6751,-3.6771,-3.677,-3.6778,-3.6797,-3.6792,-3.6713,-3.6701,-3.6691,-3.668,-3.6799,-3.6799,-3.6875,-3.6875,-3.6876]}]]